www.weatherandclimate.eu
Time
(UTC), date
00 28.11
03 28.11
06 28.11
09 28.11
12 28.11
15 28.11
18 28.11
21 28.11
00 29.11
03 29.11
06 29.11
09 29.11
12 29.11
15 29.11
18 29.11
21 29.11
00 30.11
03 30.11
06 30.11
09 30.11
12 30.11
15 30.11
18 30.11
21 30.11
00 1.12
03 1.12
06 1.12
09 1.12
12 1.12
15 1.12
18 1.12
21 1.12
00 2.12
03 2.12
06 2.12
09 2.12
12 2.12
15 2.12
18 2.12
21 2.12
00 3.12
03 3.12
06 3.12
09 3.12
12 3.12
15 3.12
18 3.12
21 3.12
00 4.12
03 4.12
06 4.12
09 4.12
12 4.12
15 4.12
18 4.12
Wind
(dir.,m/s)
Visibility Phenomena Clouds Т
(С)
Тd
(С)
f
(%)
Тe
(С)
Тes
(С)
Comfort P
(hPa)
Po
hPa)
Тmin
(С)
Tmax
(С)
R
(mm)
R24
(mm)
S
(sm)
S 6
{15}
4000 m slightsnow 10/6 600 м
[Sc Ac As]
-10.3 -14.7 70 -19 -19 seasonable 1037.7 1029.0 -10.2 0.6 58
S 9-11
{13}
4000 m slightsnow {drifting snow} 10/8 600 м
[Sc Ac As]
-10.8 -15.2 70 -21 -21 seasonable 1036.9 1028.2 -10.8
S 8-10
{14}
4000 m slightsnow {drifting snow} 10/10 600 м
[Sc]
-10.6 -15.0 70 -20 -20 seasonable 1037.0 1028.3
S 6-10
{12}
4000 m slightsnowshowers 10/10 600 м
[Cb cap]
-9.6 -14.8 66 -18 -18 seasonable 1037.0 1028.3
E 3
{12}
4000 m slightsnowshowers 10/10 600 м
[Cb cap]
-10.0 -15.3 65 -16 -16 warm 1037.1 1028.4 -9.6 2
SW 6-10
{12}
4000 m slightsnowshowers {drifting snow} 10/10 600 м
[Cb cap]
-10.6 -15.0 70 -19 -19 seasonable 1036.2 1027.5
S 7-13
{14}
4000 m slightsnow 10/6 600 м
[Sc Ac As]
-10.9 -15.3 70 -20 -20 seasonable 1035.3 1026.6
SE 6 4000 m slightsnow {drifting snow} 10/6 600 м
[Sc Ac As]
-11.2 -15.6 70 -20 -20 seasonable 1034.1 1025.4
S 5
{14}
4000 m slightsnow {drifting snow} 10/6 600 м
[Sc Ac As]
-10.5 -14.1 75 -18 -18 seasonable 1032.3 1023.7 -11.1 0.5 58
S 4
{11}
4000 m slightsnow {drifting snow} 10/8 600 м
[Sc Ac As]
-10.6 -15.0 70 -18 -18 seasonable 1031.1 1022.5
SE 2
{10}
2000 m snow {drifting snow} 10/0 2000 м
[As op]
-9.9 -14.1 71 -14 -14 seasonable 1029.7 1021.1
W 5-12
{12}
2000 m snow {drifting snow} 10/0 2000 м
[As op]
-11.2 -15.6 70 -19 -19 seasonable 1029.8 1021.2
S 6-10
{17}
4000 m slightsnow {drifting snow} 10/8 600 м
[Sc Ac As]
-12.1 -15.6 75 -21 -21 seasonable 1029.6 1020.9 -9.7 3
S 7-10
{12}
4000 m slightpelletshowers {snow} 10/10 600 м
[Cb cap]
-12.2 -16.5 70 -22 -22 seasonable 1029.1 1020.4
S 8-12
{13}
4000 m slightpelletshowers {snow} 10/10 600 м
[Cb cap]
-11.4 -14.9 75 -21 -21 seasonable 1027.6 1019.0
S 6
{12}
4000 m slightpelletshowers {drifting snow} 10/10 600 м
[Cb cap]
-10.8 -15.2 70 -19 -19 seasonable 1026.0 1017.4
SW 3
{12}
4000 m slightpelletshowers {drifting snow} 10/10 600 м
[Cb cap]
-10.6 -15.0 70 -16 -16 warm 1024.5 1015.9 -12.2 5 63
S 9-13
{14}
4000 m slightsnow {drifting snow} 10/10 600 м
[Cb cap]
-13.6 -17.1 75 -25 -25 warm 1023.3 1014.6
N 5-11
{14}
2000 m snow 10/10 600 м
[Cb cap]
-13.1 -16.6 75 -21 -21 warm 1022.7 1014.1
-13
{16}
2000 m snow {drifting snow} 10/0 2000 м
[As op]
-14.3 -18.6 70 1023.0 1014.4
NE 10-12
{15}
2000 m snow {drifting snow} 10/0 2000 м
[As op]
-14.6 -18.1 75 -26 -26 seasonable 1023.0 1014.4 -10.6 6
NE 10-15
{15}
4000 m slightsnow {drifting snow} 10/8 600 м
[Sc Ac As]
-14.3 -17.0 80 -26 -26 seasonable 1022.3 1013.7
NE 10-15
{15}
2000 m snow {drifting snow} 10/0 2000 м
[As op]
-13.1 -15.8 80 -24 -24 warm 1022.0 1013.4
NE 10-15
{15}
4000 m slightsnow {drifting snow} 10/8 600 м
[Sc Ac As]
-11.9 -13.9 85 -23 -23 warm 1021.7 1013.1
NE 5
{15}
4000 m slightsnow {drifting snow} 10/8 600 м
[Sc Ac As]
-9.9 -12.1 84 -18 -18 warm 1020.7 1012.3 -14.6 9 75
SW 10-15
{16}
4000 m slightsnow {drifting snow} 10/8 600 м
[Sc Ac As]
-4.4 -8.7 72 -14 -14 warm 1019.9 1011.6
SW 10-15
{18}
2000 m snow {drifting snow} 10/8 600 м
[Sc Ac As]
-4.3 -8.1 75 -14 -14 warm 1020.1 1011.8
SW 10-15
{18}
4000 m slightsnow {drifting snow} 10/6 600 м
[Sc Ac As]
-3.6 -7.6 74 -13 -13 warm 1019.9 1011.6
SW 10-15
{17}
4000 m slightsnow {drifting snow} 10/6 600 м
[Sc Ac As]
-3.8 -7.9 73 -13 -13 warm 1019.6 1011.3 -3.4 3
SW 10-15
{19}
2000 m slightsnow {drifting snow} 10/8 600 м
[Sc Ac As]
-2.8 -7.3 71 -12 -12 warm 1018.5 1010.3
W 15-17
{21}
2000 m slightsnow {drifting snow} 10/8 600 м
[Sc Ac As]
-3.4 -6.6 78 -14 -14 warm 1016.7 1008.4
W 10-15
{17}
2000 m slightsnow {drifting snow} 10/6 600 м
[Sc Ac As]
-1.4 -6.2 70 -10 -10 warm 1015.6 1007.4
SW 11-16
{19}
2000 m slightsnow {drifting snow} 10/8 600 м
[Sc Ac As]
-1.3 -5.0 76 -10 -10 warm 1013.5 1005.3 -3.9 1 62
SW 7-11
{16}
4000 m slightsnow {drifting snow} 10/8 600 м
[Sc Ac As]
-2.9 -6.3 77 -11 -11 warm 1012.4 1004.2 -3.1
SW 9-14
{14}
4000 m slightsnow {drifting snow} 10/8 600 м
[Sc Ac As]
-6.2 -10.2 73 -16 -16 warm 1011.0 1002.7
S 12-17
{17}
1000 m snowshowers 10/10 600 м
[Cb cap]
-7.6 -10.6 79 -19 -19 warm 1008.6 1000.2
S 13-18
{21}
1000 m snowshowers 10/10 600 м
[Cb cap]
-8.3 -11.1 80 -20 -20 warm 1006.4 998.0 -1.3 4
S 13-16
{21}
1000 m snowshowers {drifting snow} 10/10 600 м
[Cb cap]
-8.4 -11.6 78 -20 -20 warm 1003.7 995.3
SW 16-22
{24}
1000 m snow 10/6 600 м
[Sc Ac As]
-5.4 -8.7 78 -17 -17 warm 1001.5 993.3
SW 13-16
{24}
1000 m slightsnow {drifting snow} 10/6 600 м
[Sc Ac As]
-4.0 -7.4 77 -14 -14 warm 1001.7 993.6
SW 13-17
{23}
4000 m slightsnow {drifting snow} 10/6 600 м
[Sc Ac As]
-6.4 -10.0 76 -17 -17 warm 1002.5 994.3 -8.4 3 56
SW 13-21
{23}
1000 m snow {drifting snow} 10/8 600 м
[Sc Ac As]
-6.2 -8.9 81 -17 -17 warm 1003.1 994.9
W 11-18
{21}
4000 m slightsnow {drifting snow} 10/8 600 м
[Sc Ac As]
-7.6 -11.1 76 -18 -18 warm 1006.5 998.1
W 10-15
{21}
4000 m slightsnow {drifting snow} 10/8 600 м
[Sc Ac As]
-7.8 -11.9 72 -18 -18 warm 1009.5 1001.1
W 4
{15}
4000 m slightsnow {drifting snow} 10/8 600 м
[Sc Ac As]
-8.4 -12.1 75 -15 -15 warm 1012.1 1003.7 -6.2 2
N 5 20 km driftingsnow 6/3 600 м
[Sc Ac lent Ci fib]
-10.3 -13.9 75 -18 -18 warm 1015.2 1006.7
NW 2 20 km {snow, drifting snow} 4/0 2000 м
[Ac trans Ci fib]
-12.6 -16.1 75 -17 -17 warm 1018.5 1009.9
N 2 20 km 3/0 2000 м
[Ac trans]
-17.4 -20.0 80 -23 -23 warm 1021.2 1012.4
NW 2 20 km 3/0 2000 м
[Ac trans]
-19.1 -22.4 75 -25 -25 seasonable 1022.5 1013.7 -19.2 55
0 4000 m slightsnow 10/0
[Cs]
-15.3 -18.0 80 -15 -15 warm 1023.2 1014.5
E 1 10 km {snow} 10/4 600 м
[Sc Ac As]
-17.1 -19.0 85 -20 -20 warm 1023.0 1014.2
E 3 20 km {snow} 9/5 600 м
[Sc Ac As]
-17.0 -19.6 80 -24 -24 seasonable 1021.9 1013.1
E 8-11
{11}
4000 m slightsnowshowers 10/10 600 м
[Cb cap]
-14.0 -16.0 85 -25 -25 seasonable 1017.0 1008.4 -14.0 0.6
S 10-15
{16}
4000 m slightsnowshowers {drifting snow} 10/10 600 м
[Cb cap]
-8.0 -11.6 75 -18 -18 warm 1012.5 1004.1
SW 10-18
{22}
1000 m snowshowers {drifting snow} 10/10 600 м
[Cb cap]
-7.4 -10.4 79 -18 -18 warm 1007.8 999.4
Weather station location Норильск (Krasnoyarsk territory, Russia): latitude 69.33 longitude 88.30 Height above sea level 65 m.
The archive shows weather in в Норильске for the last week. For the whole month and for the previous months, starting from January 2011, you can obtain archived data by selecting the date range of interest from the drop-down list and clicking the "Find!".
*Decide who are you:
Attention! The time in the tables is UTC. To get the local time, you must add an amendment that is equal to 7 h.
See also the weather archive in nearby cities and at nearby weather stations:
Partners of our site:
Column explanations:
  • Wind - indicated wind speed in m/s - average for 10 minutes, gusts in time and between periods (in brackets) and the direction from which the wind blows: N - North, NE - North-East, E - East, SE - South-East , S - South, SW - South-West, W - West, NW - North-West.
  • Visibility - horizontal visibility range in meters or kilometers. When visibility is from 1 to 10 km in the absence of precipitation, haze is usually observed, and when visibility is reduced to 1 km or less, fog is observed. In dry weather, visibility may be reduced by smoke, dust, or haze.
  • Phenomena - atmospheric phenomena observed during the period or in the last hour before the period are indicated; curly brackets indicate phenomena observed between periods (1-3 hours before the period); square brackets indicate hail or ice deposits with their diameter in mm.
  • Clouds - are through slash total and lower clouds in points, and the height of the lower border of the cloud in meters; square brackets contain cloud forms: Ci - Cirrus, Cs - Cirrostratus, Cc - Cirrocumulus, Ac - Altocumulus, As - Altostratus, Sc - Stratocumulus, Ns - Nimbostratus, Cu - Cumulus, Cb - Cumulonimbus. For more information about cloud classification, see the cloud Atlas (PDF).
  • T - Air temperature - temperature measured at a height of 2 m above the ground.
  • Td - Dew point temperature - the temperature is lowered to that contained in the air, the water vapor reaches saturation.
  • f - Relative humidity measured at a height of 2 m above the ground.
  • Te - Effective temperature is the temperature that a seasonally dressed person feels in the shade. Characteristic of stuffy weather. The calculation takes into account the influence of air humidity and wind speed on a person’s heat.
  • Tes - Effective sun temperature - the temperature that a person feels, adjusted for solar heating. Characteristics of the sultry weather. Depends on the height of the sun above the horizon, cloud cover and wind speed. At night, in cloudy weather, as well as in winds of 12 m/s or more, the correction is zero.
  • P - Atmospheric pressure - atmospheric pressure reduced to sea level.
  • Po - Atmospheric pressure - atmospheric pressure measured at the station level.
  • Tmin - Minimum temperature - minimum air temperature at a height of 2 m above the ground.
  • Tmax - Maximum temperature - maximum air temperature at a height of 2 m above the ground.
  • R - Precipitation - The amount of precipitation over a period of time, mm. When you hover over the number, the time period for which the specified amount of precipitation has fallen.
  • R24 - Количество осадков - The amount of precipitation in 24 hours, mm.
  • S - Snow cover - The height of the snow cover. When you hover the mouse over the number - the state of the snow cover and the degree of coverage in points.